Find Starlink 30472

NORAD ID: 57901 Int'l Des: 2023-146 Owner: SPXS Country: US Constellation: starlink operational
LEOCIRCULAR

实时位置

正在加载3D地球...

关于 Starlink 30472

正在加载描述...

即将过境

Passes for default location (London). Set your location on the main map for personalized predictions.

高度历史

Loading altitude history...

两行轨道根数

1 57901U 23146L 26126.00449515 .00005902 00000-0 22372-3 0 9998
2 57901 43.0035 346.9486 0001694 272.3791 87.6867 15.27595815144807
Epoch: May 6, 2026 • Age: 14 hours

当前状态

高度 493.2 km
速度 7.62 km/s
星下点 -38.17°S, 146.93°W
发射日期 Sep 20, 2023
运行时间 2.6 years
类型 internet

技术详情

分类 Payload
质量 730.00 kg
干质量 700.00 kg
总质量 730.00 kg
长度 0.30 m
直径 4.10 m
跨度 29.00 m
形状 Box + pan
制造商 SPXS
平台类型 Starlink V2M
阶段状态 In Orbit
所有者/国家 SPXS/US

Most Searched